軌道要素
Epoch 2003 June 10.0 TT = JDT 2452800.5
T 2003 June 22.09880 TT MPC
q 2.0467590 (2000.0) P Q
n 0.03205116 Peri. 126.18821 +0.85540954 +0.41854341
a 9.8153739 Node 147.44406 +0.04056514 -0.64140867
e 0.7914742 Incl. 145.45863 +0.51636129 -0.64297459
P 30.75
>From 308 observations 2002 Jan. 15-2003 Sept. 7, mean residual 0".49.
|